Location: Stull Observatory
(42.2506°N, 77.7903°W)
Time: 05:59:09
(UTC-04:00)

Daily predictions for brighter satellites

Satellite Brightness Start Highest point End
(mag) Time Altitude Azimuth Time Altitude Azimuth Time Altitude Azimuth
Terra 4.1 00:06:58 20° WNW 00:06:58 20° WNW 00:08:56 10° NW
Cosmos 2263 Rocket 4.1 00:21:07 10° NW 00:23:33 22° WNW 00:23:33 22° WNW
Cosmos 2322 Rocket 4.2 00:29:50 20° WNW 00:30:47 21° NW 00:35:00 10° N
Cosmos 2333 Rocket 4.5 00:39:46 17° NE 00:39:46 17° NE 00:41:07 10° NE
COSMOS 2428 4.4 00:55:04 30° NNE 00:55:04 30° NNE 00:57:51 10° NNE
ATLAS CENTAUR R/B 4.3 00:55:10 66° WSW 00:57:05 83° NW 01:24:10 10° NE
ATLAS 3B R/B 3.9 01:08:52 38° ENE 01:08:52 38° ENE 01:13:22 10° NE
Cosmos 2278 Rocket 3.8 01:06:32 10° NNW 01:09:23 30° N 01:09:23 30° N
CZ-2C R/B 4.3 01:35:13 10° N 01:38:09 32° N 01:38:09 32° N
Cosmos 2360 Rocket 4.5 01:43:12 16° NW 01:43:20 16° NW 01:46:46 10° N
CZ-4C R/B 4.3 01:48:42 20° ENE 01:48:42 20° ENE 01:50:43 10° NE
Cosmos 2219 Rocket 3.8 02:05:32 29° NNW 02:05:32 29° NNW 02:08:49 10° N
ATLAS CENTAUR R/B 4.4 02:07:13 10° N 02:09:33 14° NE 02:09:58 14° NE
SL-16 R/B 3.4 02:19:06 38° NNE 02:19:06 38° NNE 02:22:33 10° NNE
COSMOS 2455 4.0 02:19:04 37° NNW 02:19:04 37° NNW 02:23:22 10° NNE
Cosmos 2333 Rocket 3.7 02:21:46 31° NNW 02:21:46 31° NNW 02:25:29 10° N
Cosmos 2237 Rocket 3.6 02:23:22 32° NNW 02:23:22 32° NNW 02:26:58 10° NNE
BREEZE-M DEB (TANK) 4.1 02:40:47 68° ESE 02:40:47 68° ESE 02:44:57 10° ENE
Cosmos 1607 4.4 02:50:26 56° N 02:50:26 56° N 02:55:27 10° NNE
ATLAS 5 CENTAUR R/B 4.4 02:51:54 12° E 02:51:54 12° E 02:53:01 10° E
ATLAS 3B R/B 3.7 02:56:06 38° WNW 02:57:08 39° NW 03:04:00 10° NNE
Cosmos 1603 4.2 03:00:41 56° NE 03:00:41 56° NE 03:05:14 10° NNE
Meteor 2-3 Rocket 4.4 03:13:17 10° N 03:18:55 52° ENE 03:20:01 46° ESE
CZ-2D R/B 3.2 03:18:30 10° NNE 03:23:17 34° E 03:23:56 33° ESE
CZ-3A R/B 4.2 03:21:46 27° WNW 03:24:14 35° NNW 03:28:17 10° NE
Cosmos 1726 4.3 03:30:26 25° NNE 03:30:26 25° NNE 03:32:05 10° NNE
Cosmos 1943 3.5 03:29:24 56° ESE 03:29:28 56° ESE 03:35:00 10° NNE
Spot 4 Rocket 4.2 03:25:10 10° NNE 03:29:55 67° ENE 03:29:55 67° ENE
IRS-1D 4.2 03:25:18 10° NNE 03:30:21 48° E 03:30:40 48° ESE
CZ-4C R/B 2.9 03:33:52 42° NW 03:33:54 42° NW 03:39:40 10° NNE
Cosmos 1331 Rocket 4.0 03:33:36 10° NNW 03:38:47 78° NE 03:38:47 78° NE
ADEOS 3.6 03:34:21 10° NNE 03:39:13 78° N 03:39:13 78° N
Cosmos 2369 Rocket 2.3 03:34:23 10° NNW 03:40:00 73° ENE 03:41:29 49° SE
ARIANE 5 R/B 2.7 03:34:56 10° NNE 03:40:09 64° E 03:40:23 63° ESE
NPP 4.3 03:36:21 10° N 03:40:49 45° NW 03:40:49 45° NW
USA 234 3.2 03:40:09 10° NE 03:46:43 75° SE 03:47:57 59° SSW
S3M 4.2 03:49:07 51° WNW 03:49:07 51° WNW 03:55:15 10° N
ATLAS CENTAUR R/B 3.7 03:45:02 10° NNW 03:46:10 17° NNW 03:46:10 17° NNW
SeaSat 1 4.1 03:45:25 10° ESE 03:49:48 34° NE 03:54:13 10° N
Cosmos 1455 3.6 03:51:10 35° E 03:51:10 35° E 03:54:44 10° NNE
SL-16 R/B 2.4 03:52:07 44° SSE 03:54:17 90° NW 04:00:31 10° NNW
Resurs 1-4 Rocket 2.2 03:52:28 10° NNE 03:57:45 73° ESE 03:58:41 58° SSE
Cosmos 2242 Rocket 3.7 03:59:17 76° E 03:59:19 76° E 04:03:55 10° N
SL-16 R/B 4.1 04:00:59 17° WNW 04:01:44 17° NW 04:05:22 10° N
Cosmos 1943 Rocket 3.1 03:57:30 10° NNW 04:03:01 49° ENE 04:08:28 10° SE
NOSS 3-2 (A) 3.8 04:04:36 44° W 04:05:57 51° NW 04:12:30 10° NNE
Cosmos 2263 4.1 04:08:11 10° NNW 04:14:00 84° WSW 04:19:47 10° SSE
Cosmos 1709 Rocket 3.9 04:07:47 10° N 04:14:11 81° W 04:17:24 31° S
Cosmos 2251 Rocket 3.8 04:15:49 47° W 04:16:13 48° WNW 04:21:18 10° N
ERS-2 3.4 04:15:34 10° N 04:17:59 31° NNW 04:17:59 31° NNW
CENTAUR R/B 3.1 04:19:17 28° S 04:22:17 52° ESE 04:28:49 10° NE
NOSS 3-2 (C) 4.0 04:20:58 38° W 04:22:55 49° NW 04:29:28 10° NNE
Cosmos 1825 4.1 04:23:56 10° NNE 04:27:18 30° ENE 04:30:40 10° SE
UNK 4.1 04:28:05 44° W 04:28:05 44° W 04:32:05 10° NNW
BREEZE-M DEB (TANK) 3.4 04:28:26 33° ENE 04:28:26 33° ENE 04:30:06 10° E
SL-27 R/B 3.9 04:26:50 28° SE 04:27:59 36° ESE 04:31:21 10° NE
MOZ.5/SAFIR/RUBIN 5/SL-8 4.4 04:24:22 10° SSE 04:28:53 57° ENE 04:33:27 10° N
Cosmos 1733 Rocket 2.9 04:26:05 10° N 04:30:30 85° W 04:32:11 37° S
Abrixas rocket 4.1 04:31:10 23° NNW 04:32:17 28° N 04:35:14 10° ENE
ARGOS Delta rocket 3.8 04:28:51 10° NNE 04:33:16 70° E 04:35:21 30° S
ATLAS 5 CENTAUR R/B 1.8 04:33:28 47° SW 04:34:55 84° NW 04:40:11 10° NE
Cosmos 2074 Rocket 4.3 04:30:09 10° N 04:36:21 67° E 04:42:33 10° SSE
Cosmos 2184 Rocket 4.3 04:34:00 10° N 04:40:24 70° E 04:46:43 10° SSE
Cosmos 1862 4.2 04:36:58 10° N 04:40:51 49° E 04:44:41 10° SSE
EO 1 Del DPAF 3.7 04:43:01 43° W 04:43:01 43° W 04:46:25 10° NNW
UNKNOWN OBJECT B 2.9 04:40:27 10° N 04:44:02 48° WNW 04:44:16 47° W
MTI 3.9 04:45:27 56° WNW 04:45:27 56° WNW 04:48:32 10° NNW
PSLV R/B 3.2 04:47:17 64° SW 04:47:39 73° S 04:51:04 10° E
Cosmos 1869 3.4 04:50:13 43° SW 04:51:11 56° W 04:55:07 10° N
Cosmos 1892 4.2 04:52:19 10° NW 04:54:28 22° WNW 04:54:28 22° WNW
CZ-4B R/B 3.1 04:52:52 10° NNE 04:56:31 62° ESE 04:59:29 15° S
Cosmos 1933 3.4 04:55:34 17° S 04:58:37 79° E 05:02:45 10° N
Cosmos 1908 Rocket 3.5 04:54:49 10° N 04:59:14 87° ENE 05:03:35 10° S
Pageos (A) 4.2 04:57:09 10° N 04:58:25 31° NNW 04:58:25 31° NNW
BREEZE-M DEB (TANK) 4.1 04:59:15 23° S 05:00:13 30° SE 05:03:55 10° ENE
Okean O Rocket 1.6 04:56:35 10° N 05:01:04 77° WNW 05:04:08 20° SSW
CZ-2D R/B 3.9 04:57:05 10° N 05:01:18 46° WNW 05:03:05 29° SW
Cosmos 2221 Rocket 4.1 04:58:43 10° S 05:03:05 61° E 05:07:27 10° NNE
CZ-2D R/B 3.0 04:58:42 10° N 05:03:17 31° WNW 05:05:16 23° WSW
Okean-O 4.0 05:01:58 10° NNE 05:06:07 38° E 05:10:16 10° SSE
SL-08 ROCKET BODY 4.3 05:00:10 10° N 05:06:12 80° W 05:12:19 10° S
Atlas Centaur 2 3.9 05:08:12 10° S 05:09:52 12° SSE 05:11:38 10° SE
Cosmos 2285 Rocket 4.0 05:04:20 10° NNW 05:10:48 83° WSW 05:17:11 10° SSE
COSMOS 2406 3.2 05:08:57 15° SSW 05:13:52 87° WNW 05:19:41 10° NNE
Sich 1 Rocket 3.8 05:12:26 10° NNW 05:16:40 47° W 05:20:53 10° SSW
Cosmos 1703 Rocket 3.5 05:12:55 10° S 05:17:23 83° W 05:21:54 10° N
Cosmos 389 Rocket 3.3 05:17:29 25° WSW 05:18:36 31° WNW 05:21:47 10° N
ARIANE 5 R/B 4.2 05:15:18 10° NNW 05:18:44 18° WNW 05:20:44 15° W
Cosmos 1184 Rocket 4.3 05:20:01 10° NW 05:22:36 20° W 05:22:41 20° W
Cosmos 2369 Rocket 3.7 05:20:09 10° WNW 05:23:07 16° W 05:23:07 16° W
CZ-4C R/B 4.5 05:21:18 10° NW 05:24:19 14° NNW 05:27:31 10° NNE
CZ-4B DEB 4.2 05:20:32 10° N 05:25:59 69° WNW 05:31:24 10° SSW
Cosmos 1455 4.0 05:26:13 15° W 05:27:01 16° WNW 05:29:33 10° NNW
SeaSat 1 3.0 05:22:48 10° S 05:27:16 34° WSW 05:31:46 10° NW
CZ-4B R/B 3.2 05:22:15 10° N 05:27:29 61° WNW 05:32:40 10° SSW
USA 234 4.1 05:23:24 10° NE 05:29:26 41° NNW 05:35:18 11° W
Geosat 4.1 05:27:52 10° NNE 05:32:56 78° ESE 05:37:57 10° SSW
USA 129 0.9 05:35:23 42° NW 05:35:23 42° NW 05:36:26 10° NNW
Resurs 1-4 Rocket 3.8 05:33:52 10° NNW 05:36:58 16° WNW 05:39:46 11° W
PSLV R/B 3.6 05:33:13 10° NNE 05:37:37 86° W 05:42:00 10° SSW
SL-16 R/B 4.1 05:37:14 12° WSW 05:38:42 13° W 05:41:36 10° WNW
USA 116 4.3 05:34:13 10° SSE 05:38:59 89° WSW 05:44:15 10° NNW
COSMOS 2487 2.7 05:37:00 10° S 05:40:36 73° ESE 05:44:12 10° NNE
Meteor 2-10 Rocket 4.4 05:39:56 10° S 05:45:38 61° E 05:51:16 10° NNE
Cosmos 1943 Rocket 3.2 05:41:56 10° NW 05:46:24 25° WSW 05:50:51 10° SSW
MOS 1 Rocket 4.2 05:46:41 10° NNE 05:50:51 47° E 05:54:59 10° S
ADEOS II 2.1 05:46:42 10° N 05:51:59 80° WNW 05:57:14 10° SSW
Cosmos 1190 Rocket 4.0 05:47:34 10° SSW 05:52:43 64° WNW 05:57:53 10° NNE
Thor Agena Rocket 4.0 05:48:55 10° SSW 05:53:41 38° W 05:58:32 10° NNW
Okean 2 Rocket 3.3 05:49:52 10° NNW 05:54:14 49° W 05:58:35 10° SSW
Cosmos 1408 4.0 05:52:09 10° NW 05:55:00 21° W 05:57:51 10° SW
Okean 1-7 3.3 05:51:46 10° SSW 05:55:56 48° WNW 06:00:11 10° N
Nadezhda 1 Rocket 4.5 05:52:07 10° SW 05:57:58 41° WNW 06:03:56 10° N
CZ-4B R/B 4.4 05:57:03 10° NNE 06:01:35 76° ESE 06:06:01 10° S
Meteor 1-31 Rocket 2.9 05:57:45 10° NNE 06:01:35 79° ESE 06:05:23 10° S
Cosmos 1825 3.7 06:00:10 10° NW 06:02:41 17° W 06:05:11 10° SW
SL-27 R/B 4.4 06:01:10 10° W 06:03:25 15° WNW 06:05:38 10° NNW
Aureole 3 Rocket 4.3 05:57:11 10° SSW 06:03:46 42° W 06:08:35 10° N
ADEOS Rocket 3.7 05:57:48 10° N 06:05:25 64° WNW 06:13:01 10° SSW
Centaur D-1A AC-31 3.4 06:00:16 10° WSW 06:05:25 17° SSW 06:08:18 10° SSE
